Regional Weather Roundup
Issued by NWS Jackson, KY

Home | Current Version | Previous Version | Graphics & Text | Print | Product List | Glossary On
Versions: 1 2 3 4 5 6 7 8 9 10 11 12 13 14 15 16 17 18 19 20 21 22 23 24 25 26 27 28 29 30 31 32 33 34 35 36 37 38 39 40 41 42 43 44 45 46 47 48 49 50
771
ASUS43 KJKL 140110
RWRJKL

EAST KENTUCKY HOURLY WEATHER ROUNDUP
NATIONAL WEATHER SERVICE JACKSON KY
800 PM EST SAT FEB 13 2016

NOTE: "FAIR" INDICATES FEW OR NO CLOUDS BELOW 12,000 FEET WITH
NO SIGNIFICANT WEATHER AND/OR OBSTRUCTIONS TO VISIBILITY.

* THESE REPORTS ARE NOT UNDER NWS QUALITY CONTROL AND MAY NOT
  REPORT WEATHER SUCH AS PRECIPITATION AND FOG.

KYZ079-080-083-085-087-088-110-112-115-119-120-140200
...EASTERN KENTUCKY...

CITY           SKY/WX    TMP DP  RH WIND       PRES   REMARKS
JACKSON        CLEAR     16   0  49 N3        30.45S
LONDON         CLEAR     18   2  49 NE5       30.46F WCI  11
SOMERSET*      PTCLDY    19   5  53 NE5       30.50S WCI  13
MONTICELLO*    CLEAR     19   8  62 N13       30.50R WCI   6
WILLIAMSBURG*  CLEAR     19   5  53 N6        30.46F WCI  11
MIDDLESBORO*   CLEAR     19  10  65 N3        30.46S
HARLAN APT*      N/A     21   0  39 CALM      30.43S
HAZARD APT*    CLEAR    -22 -33  57 CALM      30.47R
BIG SANDY*     CLEAR     17  -1  46 CALM      30.47S
MOREHEAD APT*  CLEAR     18   0  45 CALM      30.51S
$$

KYZ035-036-041-042-044-050-067-078-099-140200
...CENTRAL KENTUCKY...

CITY           SKY/WX    TMP DP  RH WIND       PRES   REMARKS
MT STERLING*   PTCLDY    18   5  57 CALM      30.50F
DANVILLE*      CLEAR     18   7  62 N3        30.50S
RICHMOND*      CLEAR     18   3  53 CALM      30.48F
LEXINGTON      PTCLDY    18   2  49 CALM      30.49S
FRANKFORT      CLEAR     17   1  49 CALM      30.49F
$$

KYZ091>093-OHZ055-061-077-WVZ005-015-034-035-042-140200
...SOUTHERN OHIO/WEST VIRGINIA...

CITY           SKY/WX    TMP DP  RH WIND       PRES   REMARKS
COVINGTON      CLOUDY    14   1  56 CALM      30.50F
COLUMBUS       PTCLDY    11   0  61 W7        30.48S WCI   0
DAYTON         PTCLDY     9   0  67 NW3       30.48F
WILMINGTON     CLOUDY     6  -2  69 CALM      30.48S
HUNTINGTON       N/A     15  -3  44 N5        30.50S WCI   8
CHARLESTON       N/A     13  -4  46 N7        30.48R WCI   3
PINEVILLE*       N/A      4  -1  77 MISG      30.45S
BECKLEY          N/A      8  -6  52 NW6       30.32R WCI  -2
$$

VAZ002-007-008-TNZ017-027-036-066-071-140200
...SOUTHWEST VIRGINIA/EAST TENNESSEE...

CITY           SKY/WX    TMP DP  RH WIND       PRES   REMARKS
BRISTOL        CLEAR     19   3  49 N5        30.41R WCI  12
KNOXVILLE      CLEAR     25   6  44 NE7       30.44R WCI  17
OAK RIDGE      CLEAR     27   3  35 CALM      30.47R
CROSSVILLE     CLOUDY    23   2  40 N6        30.40R WCI  16
NASHVILLE      CLOUDY    27   2  34 N7        30.50R WCI  19
$$

...KEY TO REMARKS...
VSB - VISIBILITY IN MILES
WCI - WIND CHILL INDEX
HX  - HEAT INDEX

$$




USA.gov is the U.S. government's official web portal to all federal, state and local government web resources and services.